Weather History for Spokane Fairchild, WA

Change the Weather History Date:

Friday, November 23, 2012

  Actual Average Record
Temperature  
Mean Temperature 38 °F -  
Max Temperature 44 °F 38 °F 55 °F (2011)
Min Temperature 31 °F 27 °F -2 °F (2010)
Degree Days  
Heating Degree Days 28    
Moisture  
Dew Point 38 °F    
Average Humidity 95    
Maximum Humidity 100    
Minimum Humidity 76    
Precipitation  
Precipitation 0.17 in - - ()
Sea Level Pressure  
Sea Level Pressure 30.17 in    
Wind  
Wind Speed 9 mph (SSE)    
Max Wind Speed 20 mph    
Max Gust Speed 28 mph    
Visibility 10 miles    
Events Rain    
Averages and records for this station are not official NWS values.
T = Trace of Precipitation, MM = Missing Value Source: NWS Daily Summary

Daily Weather History Graph

Daily Weather History Graph

Search for Another Location

Airport:

Trip Planner

Search our weather history database for the weather conditions in past years. The results will help you decide how hot, cold, wet, or windy it might be!

Date:

Astronomy

Nov. 23, 2012 Rise Set
Actual Time 7:08 AM PST 4:05 PM PST
Civil Twilight 6:33 AM PST 4:40 PM PST
Nautical Twilight 5:55 AM PST 5:18 PM PST
Astronomical Twilight 5:18 AM PST 5:55 PM PST
Moon 1:37 PM PST (11/23) 2:15 AM PST (11/23)
Length of Visible Light 10h 06m
Length of Day
8h 57m
Waxing Gibbous, 80% of the Moon is Illuminated
Nov 23
Waxing Gibbous
Nov 28
Full
Dec 6
Last Quarter
Dec 13
New
Dec 19
First Quarter

Hourly Weather History & Observations

Time (PST) Temp. Windchill Dew Point Humidity Pressure Visibility Wind Dir Wind Speed Gust Speed Precip Events Conditions
12:58 AM 32.5 °F 25.5 °F 32.5 °F 100% 30.39 in 10.0 mi ENE 8.1 mph - N/A   Overcast
1:58 AM 33.3 °F 25.7 °F 33.3 °F 100% 30.38 in 10.0 mi NE 9.2 mph - N/A   Overcast
2:58 AM 32.9 °F - 32.9 °F 100% 30.37 in 10.0 mi NE 2.3 mph - N/A   Mostly Cloudy
3:58 AM 32.5 °F 27.1 °F 32.5 °F 100% 30.35 in 10.0 mi East 5.8 mph - N/A   Mostly Cloudy
4:58 AM 31.6 °F 23.7 °F 31.6 °F 100% 30.35 in 10.0 mi NNE 9.2 mph - N/A   Scattered Clouds
5:58 AM 31.6 °F 25.1 °F 31.6 °F 100% 30.32 in 10.0 mi ENE 6.9 mph - N/A   Clear
6:22 AM 32.0 °F 25.6 °F 32.0 °F 100% 30.25 in 10.0 mi ENE 6.9 mph - N/A   Scattered Clouds
6:46 AM 32.0 °F 26.4 °F 32.0 °F 100% 30.24 in 10.0 mi NNE 5.8 mph - N/A   Partly Cloudy
6:58 AM 31.6 °F 26.0 °F 31.6 °F 100% 30.32 in 10.0 mi NNE 5.8 mph - 0.00 in   Partly Cloudy
7:58 AM 32.7 °F 26.4 °F 32.7 °F 100% 30.31 in 10.0 mi NE 6.9 mph - N/A   Scattered Clouds
8:58 AM 34.5 °F 30.4 °F 34.5 °F 100% 30.30 in 10.0 mi East 4.6 mph - N/A   Mostly Cloudy
9:33 AM 35.6 °F 31.7 °F 35.6 °F 100% 30.22 in 10.0 mi NE 4.6 mph - N/A   Scattered Clouds
9:58 AM 36.9 °F 32.2 °F 36.9 °F 100% 30.28 in 10.0 mi East 5.8 mph - 0.00 in   Mostly Cloudy
10:15 AM 39.2 °F 35.9 °F 35.6 °F 87% 30.21 in 10.0 mi ESE 4.6 mph - N/A   Mostly Cloudy
10:58 AM 39.9 °F 36.7 °F 36.0 °F 86% 30.27 in 10.0 mi Variable 4.6 mph - 0.00 in   Mostly Cloudy
11:58 AM 42.1 °F 38.4 °F 36.0 °F 79% 30.26 in 10.0 mi SE 5.8 mph - N/A   Mostly Cloudy
12:20 PM 42.8 °F 41.1 °F 35.6 °F 76% 30.19 in 10.0 mi SE 3.5 mph - N/A   Scattered Clouds
12:55 PM 42.8 °F 39.3 °F 39.2 °F 87% 30.18 in 10.0 mi SSE 5.8 mph - N/A   Mostly Cloudy
12:58 PM 42.8 °F 40.1 °F 39.2 °F 87% 30.24 in 10.0 mi SE 4.6 mph - 0.00 in   Mostly Cloudy
1:01 PM 42.8 °F 39.3 °F 37.4 °F 81% 30.18 in 10.0 mi SE 5.8 mph - N/A Rain Light Rain
1:12 PM 42.8 °F 38.0 °F 39.2 °F 87% 30.17 in 10.0 mi SE 8.1 mph - N/A   Scattered Clouds
1:19 PM 42.8 °F 38.0 °F 39.2 °F 87% 30.17 in 10.0 mi SSE 8.1 mph - N/A Rain Light Rain
1:36 PM 42.8 °F 37.5 °F 37.4 °F 81% 30.15 in 10.0 mi SE 9.2 mph - N/A   Partly Cloudy
1:43 PM 44.6 °F 39.7 °F 37.4 °F 76% 30.15 in 10.0 mi SSE 9.2 mph - N/A Rain Light Rain
1:58 PM 43.5 °F 38.3 °F 38.1 °F 81% 30.20 in 10.0 mi SSE 9.2 mph - 0.00 in Rain Light Rain
2:43 PM 42.8 °F 36.6 °F 37.4 °F 81% 30.13 in 10.0 mi SSE 11.5 mph - N/A   Overcast
2:58 PM 43.2 °F 36.6 °F 37.9 °F 82% 30.19 in 10.0 mi South 12.7 mph - 0.00 in   Overcast
3:01 PM 42.8 °F 36.6 °F 37.4 °F 81% 30.13 in 10.0 mi South 11.5 mph - N/A   Light Drizzle
3:58 PM 41.9 °F 36.3 °F 41.7 °F 99% 30.17 in 10.0 mi South 9.2 mph - 0.00 in Rain Light Rain
4:58 PM 40.1 °F 33.6 °F 40.1 °F 100% 30.14 in 10.0 mi South 10.4 mph - 0.01 in Rain Light Rain
5:33 PM 39.2 °F 33.0 °F 39.2 °F 100% 30.08 in 10.0 mi South 9.2 mph - N/A Rain Light Rain
5:38 PM 39.2 °F 33.6 °F 39.2 °F 100% 30.08 in 10.0 mi South 8.1 mph - N/A Rain Light Rain
5:58 PM 39.7 °F 34.3 °F 39.7 °F 100% 30.14 in 10.0 mi South 8.1 mph - 0.03 in Rain Light Rain
6:58 PM 39.4 °F 35.2 °F 39.4 °F 100% 30.14 in 10.0 mi South 5.8 mph - 0.05 in Rain Light Rain
7:58 PM 39.2 °F 31.2 °F 39.2 °F 100% 30.11 in 10.0 mi South 13.8 mph - 0.03 in Rain Light Rain
8:05 PM 39.2 °F 30.5 °F 39.2 °F 100% 30.04 in 10.0 mi South 16.1 mph - N/A   Overcast
8:42 PM 39.2 °F 30.5 °F 39.2 °F 100% 30.03 in 10.0 mi South 16.1 mph - N/A Rain Light Rain
8:58 PM 39.7 °F 31.2 °F 39.7 °F 100% 30.08 in 10.0 mi South 16.1 mph - 0.01 in Rain Light Rain
9:28 PM 41.0 °F 33.1 °F 41.0 °F 100% 30.01 in 10.0 mi South 15.0 mph 23.0 mph N/A Rain Light Rain
9:58 PM 40.5 °F 31.5 °F 40.5 °F 100% 30.06 in 10.0 mi South 18.4 mph - 0.01 in Rain Light Rain
10:23 PM 41.0 °F 32.5 °F 41.0 °F 100% 30.02 in 10.0 mi SSW 17.3 mph 24.2 mph N/A Rain Light Rain
10:33 PM 41.0 °F 33.1 °F 41.0 °F 100% 30.02 in 10.0 mi SSW 15.0 mph 25.3 mph N/A Rain Light Rain
10:58 PM 41.0 °F 31.9 °F 41.0 °F 100% 30.06 in 10.0 mi SSW 19.6 mph 25.3 mph 0.02 in   Overcast
11:04 PM 41.0 °F 31.9 °F 41.0 °F 100% 30.01 in 10.0 mi South 19.6 mph 27.6 mph N/A   Overcast
11:09 PM 41.0 °F 31.9 °F 41.0 °F 100% 30.01 in 10.0 mi South 19.6 mph 27.6 mph N/A   Overcast
11:14 PM 41.0 °F 32.2 °F 41.0 °F 100% 30.02 in 10.0 mi SSW 18.4 mph 27.6 mph N/A Rain Light Rain
11:19 PM 41.0 °F 32.5 °F 41.0 °F 100% 30.02 in 10.0 mi SSW 17.3 mph 23.0 mph N/A Rain Light Rain
11:39 PM 41.0 °F 32.8 °F 41.0 °F 100% 30.02 in 10.0 mi SSW 16.1 mph 21.9 mph N/A Rain Light Rain
11:58 PM 40.6 °F 31.7 °F 40.6 °F 100% 30.06 in 10.0 mi SSW 18.4 mph 27.6 mph 0.01 in Rain Light Rain